[[{"header":{"parameterUnit":"m.s-1","parameterCategory":1,"la1":30.2991,"la2":30.254,"lo1":-89.0895,"lo2":-89.0444,"dy":0.0017,"dx":0.0017,"nx":28,"ny":28,"refTime":"2025-09-08T03:00:00:Z","depth":0,"parameterNumber":2,"parameterNumberName":"U-component_of_WINDS"},"data":[0,0,0,0,0,0,0,0,0,0,0,0,0,0,0,0,0,0,0,0,0,0,0,0,0,0,0,0,0,0,0,0,0,0,0,0,0,0,0,0,0,0,0,0,0,0,0,0,0,0,0,0,0,0,0,0,0,0,-4.7942,-4.7942,0,-4.7937,-4.7937,-4.7937,-4.7833,-4.783,-4.7828,-4.7825,-4.782,-4.7823,-4.7825,0,0,0,0,0,0,0,0,0,0,0,0,0,-4.786,-4.7862,-4.7942,-4.7942,-4.7942,-4.7937,-4.7937,-4.7937,-4.7834,-4.783,-4.7827,-4.7824,-4.782,-4.7822,-4.7825,0,0,0,0,0,0,0,0,0,0,0,0,0,-4.788,-4.7863,-4.7942,-4.7889,-4.7885,-4.7937,-4.7937,-4.7937,-4.7834,-4.783,-4.7826,-4.7822,-4.7819,-4.7822,-4.7826,-4.7928,0,0,-4.7837,-4.7838,0,0,0,0,0,0,0,0,-4.7879,-4.7883,-4.7897,-4.7893,-4.7888,-4.7882,-4.7906,-4.7934,-4.7835,-4.7853,-4.7825,-4.782,-4.7844,-4.7845,-4.7853,-4.7928,-4.7928,-4.7837,-4.7839,-4.7841,-4.7842,0,0,0,0,0,0,0,-4.7877,-4.7882,-4.794,-4.7897,-4.7892,-4.7866,-4.7864,-4.7911,-4.7871,-4.7851,-4.7844,-4.7845,-4.7841,-4.785,-4.7852,-4.7927,-4.7837,-4.784,-4.7842,-4.7843,-4.8086,-4.8091,0,0,0,0,0,0,-4.7883,-4.7882,-4.794,-4.794,-4.7873,-4.7871,-4.7869,-4.7888,-4.787,-4.7864,-4.7848,-4.784,-4.7846,-4.7848,-4.7852,-4.7971,-4.7841,-4.7844,-4.7846,-4.8082,-4.8087,-4.8092,0,0,0,0,0,0,-4.7882,-4.789,-4.794,-4.7909,-4.7913,-4.7876,-4.7898,-4.789,-4.7899,-4.7868,-4.786,-4.7865,-4.7843,-4.7847,-4.791,-4.7969,-4.7845,-4.7849,-4.8077,-4.8084,-4.809,-4.821,0,0,0,0,0,0,-4.788,-4.789,-4.7928,-4.791,-4.7915,-4.7999,-4.7902,-4.7892,-4.7905,-4.7894,-4.7882,-4.7876,-4.784,-4.7905,-4.7914,-4.7972,-4.7851,-4.8072,-4.808,-4.8088,-4.82,-4.822,-4.8236,0,0,0,0,0,-4.7878,-4.7962,-4.7931,-4.7938,-4.7963,-4.8002,-4.8005,-4.7962,-4.7911,-4.7949,-4.7929,-4.7876,-4.7961,-4.7913,-4.7921,-4.7981,-4.8068,-4.8078,-4.8087,-4.8192,-4.8216,-4.8236,0,0,0,0,0,0,-4.7987,-4.7959,-4.7924,-4.8005,-4.8007,-4.7985,-4.8032,-4.7988,-4.8005,-4.7994,-4.794,-4.7938,-4.801,-4.8002,-4.7948,-4.808,-4.8005,-4.8017,-4.8083,-4.8105,-4.8122,-4.8123,-4.7854,0,0,0,0,0,-4.8021,-4.8056,-4.8029,-4.8103,-4.8106,-4.8069,-4.8085,-4.8052,-4.8051,-4.8052,-4.8036,-4.8038,-4.8065,-4.8084,-4.8108,-4.8199,-4.8195,-4.8244,-4.8262,-4.8277,-4.8288,-4.8336,-4.8358,-4.8124,-4.8124,-4.8124,0,0,-4.8091,-4.8079,-4.8104,-4.8125,-4.8122,-4.816,-4.807,-4.8113,-4.814,-4.8058,-4.8117,-4.8106,-4.8105,-4.8183,-4.8216,-4.8178,-4.8352,-4.829,-4.8302,-4.8304,-4.8349,-4.8371,-4.8391,-4.8131,-4.8129,-4.8128,0,0,-4.8237,-4.8232,-4.8293,-4.8293,-4.8291,-4.8266,-4.8281,-4.8266,-4.8256,-4.8314,-4.8253,-4.8285,-4.8332,-4.8334,-4.8341,-4.849,-4.8442,-4.8499,-4.8592,-4.864,-4.8658,-4.8674,-4.8728,-4.8747,-4.851,-4.851,-4.851,0,-4.8324,-4.8378,-4.833,-4.8378,-4.8389,-4.8316,-4.8378,-4.838,-4.8386,-4.8395,-4.8352,-4.8411,-4.8405,-4.8483,-4.8519,-4.8527,-4.8543,-4.85,-4.8659,-4.8675,-4.8689,-4.874,-4.876,-4.8517,-4.8516,-4.8515,-4.8515,0,-4.8485,-4.8524,-4.8573,-4.8581,-4.8598,-4.8652,-4.8614,-4.8636,-4.8602,-4.8581,-4.8642,-4.8632,-4.8653,-4.8669,-4.8635,-4.8742,-4.8719,-4.8669,-4.8593,-4.8719,-4.8766,-4.8785,-4.8527,-4.8524,-4.8522,-4.852,0,0,-4.87,-4.8682,-4.8701,-4.8704,-4.8697,-4.8725,-4.8777,-4.8797,-4.8817,-4.8824,-4.8866,-4.8909,-4.8862,-4.8871,-4.8837,-4.8879,-4.8998,-4.8824,-4.8823,-4.8857,-4.9116,-4.9154,-4.9177,-4.8966,-4.897,-4.8973,-4.9116,0,-4.8842,-4.8929,-4.8888,-4.898,-4.9015,-4.8947,-4.8992,-4.8993,-4.8976,-4.9003,-4.8983,-4.9015,-4.8951,-4.8956,-4.8994,-4.8976,-4.9049,-4.8964,-4.9005,-4.9007,-4.9008,-4.9201,-4.9241,-4.9378,-4.9134,-4.9137,-4.9139,0,-4.9019,-4.9034,-4.9129,-4.9116,-4.9129,-4.9171,-4.9186,-4.9213,-4.9212,-4.9197,-4.9207,-4.9164,-4.9214,-4.9139,-4.9207,-4.915,-4.9164,-4.9158,-4.9162,-4.9164,-4.9081,-4.9209,-4.942,-4.9441,-4.9167,-4.9165,-4.9163,0,-4.9167,-4.921,-4.9273,-4.9278,-4.9264,-4.9295,-4.9291,-4.9286,-4.9301,-4.9315,-4.9324,-4.9343,-4.9354,-4.937,-4.9334,-4.9282,-4.9408,-4.9329,-4.9397,-4.9398,-4.9426,-4.9425,-4.9642,-4.9435,-4.9435,-4.9434,-4.9434,0,-4.933,-4.9391,-4.934,-4.9379,-4.9445,-4.9398,-4.9466,-4.9454,-4.9451,-4.9486,-4.9428,-4.9463,-4.9412,-4.9442,-4.9414,-4.9475,-4.948,-4.9469,-4.9461,-4.9475,-4.9476,-4.9484,-4.9473,-4.944,-4.9439,-4.9438,-4.9437,0,-4.9506,-4.9474,-4.9539,-4.9521,-4.9518,-4.9568,-4.9552,-4.9588,-4.9566,-4.9612,-4.962,-4.9587,-4.9619,-4.9585,-4.9614,-4.9595,-4.9678,-4.9656,-4.9679,-4.9672,-4.9742,-4.9736,-4.9972,-5.0001,-4.9775,-4.9777,-4.9779,0,-4.9613,-4.9658,-4.9646,-4.9665,-4.9665,-4.9697,-4.9712,-4.9668,-4.9686,-4.9689,-4.9725,-4.9752,-4.9771,-4.9826,-4.9805,-4.9827,-4.9805,-4.9886,-4.9808,-4.9821,-4.9807,-4.9805,-4.981,-4.9902,-4.9905,-4.9907,-4.9909,0,-4.9805,-4.9787,-4.9811,-4.9831,-4.9851,-4.9863,-4.9872,-4.9891,-4.9845,-4.9869,-4.9901,-4.9916,-4.9946,-4.9974,-4.9991,-4.9986,-4.9941,-4.9934,-4.9951,-4.9965,-4.9977,-4.9972,-4.9722,-4.9929,-4.9927,-4.9925,-4.9924,-4.9923,-4.995,-4.9987,-4.9985,-5.0014,-5.0016,-5.0025,-5.0058,-5.0041,-5.0067,-5.0088,-5.006,-5.0101,-5.0099,-5.0117,-5.0118,-5.0149,-5.0114,-5.0139,-5.0145,-5.0152,-5.0163,-4.9972,-5.0152,-5.0151,-5.0151,-5.015,-5.015,0,-5.0139,-5.0134,-5.0162,-5.0176,-5.0199,-5.0154,-5.0161,-5.0184,-5.022,-5.0222,-5.0243,-5.0281,-5.0308,-5.0289,-5.0312,-5.0341,-5.0321,-5.0348,-5.0346,-5.0346,-5.0192,-5.0175,-5.0365,-5.0364,-5.0364,-5.0364,-5.0364,-5.0364,-5.0241,-5.0302,-5.0285,-5.0347,-5.0341,-5.038,-5.0388,-5.0397,-5.0399,-5.0444,-5.0466,-5.0454,-5.0448,-5.047,-5.0494,-5.0487,-5.0499,-5.0535,-5.0521,-5.0378,-5.0357,-5.0336,-5.0321,-5.0537,-5.0538,-5.0673,-5.0674,-5.0675]},{"header":{"parameterUnit":"m.s-1","parameterCategory":1,"la1":30.2991,"la2":30.254,"lo1":-89.0895,"lo2":-89.0444,"dy":0.0017,"dx":0.0017,"nx":28,"ny":28,"refTime":"2025-09-08T03:00:00:Z","depth":0,"parameterNumber":3,"parameterNumberName":"V-component_of_WINDS"},"data":[0,0,0,0,0,0,0,0,0,0,0,0,0,0,0,0,0,0,0,0,0,0,0,0,0,0,0,0,0,0,0,0,0,0,0,0,0,0,0,0,0,0,0,0,0,0,0,0,0,0,0,0,0,0,0,0,0,0,-1.1593,-1.1594,0,-1.1636,-1.1637,-1.1637,-1.1625,-1.1624,-1.1623,-1.1622,-1.167,-1.1672,-1.1674,0,0,0,0,0,0,0,0,0,0,0,0,0,-1.1503,-1.1505,-1.1593,-1.1594,-1.1594,-1.1636,-1.1637,-1.1637,-1.1625,-1.1624,-1.1623,-1.1622,-1.1669,-1.1672,-1.1674,0,0,0,0,0,0,0,0,0,0,0,0,0,-1.1544,-1.1506,-1.1593,-1.1593,-1.1594,-1.1636,-1.1637,-1.1637,-1.1625,-1.1624,-1.1623,-1.1622,-1.1668,-1.1672,-1.1675,-1.1721,0,0,-1.1684,-1.1686,0,0,0,0,0,0,0,0,-1.1542,-1.1547,-1.1593,-1.1593,-1.1594,-1.1624,-1.1622,-1.1665,-1.1626,-1.1613,-1.1622,-1.1621,-1.1656,-1.166,-1.1671,-1.1723,-1.1725,-1.1685,-1.1686,-1.1688,-1.1689,0,0,0,0,0,0,0,-1.1539,-1.1546,-1.161,-1.1593,-1.1594,-1.1592,-1.1596,-1.1631,-1.1642,-1.1614,-1.1614,-1.1619,-1.1656,-1.1668,-1.1672,-1.1726,-1.1684,-1.1687,-1.1689,-1.169,-1.1817,-1.1818,0,0,0,0,0,0,-1.1535,-1.1543,-1.1609,-1.1612,-1.1564,-1.1595,-1.1599,-1.1616,-1.1641,-1.1644,-1.162,-1.1618,-1.1663,-1.1669,-1.1674,-1.1729,-1.1688,-1.1691,-1.1692,-1.1815,-1.1817,-1.1819,0,0,0,0,0,0,-1.1533,-1.1541,-1.1607,-1.1577,-1.1585,-1.1598,-1.1616,-1.1617,-1.1629,-1.1645,-1.1648,-1.163,-1.1663,-1.1669,-1.1709,-1.1731,-1.1692,-1.1695,-1.1814,-1.1816,-1.1818,-1.1841,0,0,0,0,0,0,-1.1531,-1.1541,-1.1558,-1.1578,-1.1587,-1.1641,-1.1617,-1.1619,-1.1634,-1.1632,-1.1655,-1.1658,-1.1662,-1.1704,-1.1712,-1.1734,-1.1697,-1.1812,-1.1815,-1.1817,-1.1838,-1.1844,-1.1848,0,0,0,0,0,-1.1528,-1.1563,-1.1559,-1.1567,-1.1609,-1.1642,-1.1648,-1.165,-1.1636,-1.1654,-1.1664,-1.1657,-1.1727,-1.1708,-1.1717,-1.1741,-1.181,-1.1814,-1.1817,-1.1836,-1.1842,-1.1848,0,0,0,0,0,0,-1.1548,-1.1566,-1.1561,-1.1604,-1.1621,-1.164,-1.1662,-1.1657,-1.168,-1.1678,-1.1681,-1.1686,-1.1727,-1.1738,-1.1717,-1.1786,-1.1767,-1.1772,-1.1778,-1.1784,-1.1789,-1.1786,-1.17,0,0,0,0,0,-1.1557,-1.1581,-1.1597,-1.1633,-1.1642,-1.165,-1.1665,-1.1666,-1.1684,-1.1692,-1.1705,-1.1724,-1.1751,-1.1768,-1.1793,-1.1839,-1.1844,-1.186,-1.1865,-1.1869,-1.1874,-1.1899,-1.1906,-1.183,-1.183,-1.183,0,0,-1.1576,-1.1589,-1.1605,-1.1637,-1.1651,-1.1677,-1.1657,-1.1686,-1.1706,-1.1697,-1.1735,-1.1745,-1.1766,-1.1809,-1.1829,-1.182,-1.1895,-1.1873,-1.1876,-1.1879,-1.1903,-1.191,-1.1917,-1.1832,-1.1832,-1.1831,0,0,-1.1626,-1.1638,-1.1669,-1.1683,-1.1703,-1.1708,-1.1715,-1.1734,-1.1741,-1.1778,-1.1772,-1.1796,-1.1841,-1.1856,-1.187,-1.1924,-1.1919,-1.1932,-1.1958,-1.1983,-1.1989,-1.1994,-1.2014,-1.2021,-1.1936,-1.1936,-1.1936,0,-1.1648,-1.1686,-1.1687,-1.1716,-1.173,-1.1721,-1.1754,-1.1767,-1.1795,-1.1805,-1.1794,-1.185,-1.1864,-1.191,-1.1923,-1.1934,-1.1944,-1.193,-1.1988,-1.1993,-1.1998,-1.2017,-1.2024,-1.1938,-1.1937,-1.1937,-1.1937,0,-1.1713,-1.174,-1.1763,-1.1788,-1.1805,-1.1836,-1.1841,-1.1858,-1.1857,-1.1864,-1.1902,-1.1918,-1.1946,-1.1957,-1.1956,-1.2003,-1.1997,-1.1986,-1.1967,-1.2007,-1.2025,-1.2032,-1.194,-1.1939,-1.1939,-1.1938,0,0,-1.1778,-1.1801,-1.181,-1.1821,-1.1842,-1.1863,-1.1893,-1.1919,-1.1934,-1.1953,-1.1979,-1.2016,-1.2006,-1.2022,-1.2023,-1.2045,-1.2086,-1.2032,-1.2032,-1.2042,-1.2139,-1.2148,-1.2156,-1.2082,-1.2084,-1.2085,-1.2138,0,-1.183,-1.1881,-1.1882,-1.193,-1.1955,-1.1946,-1.1972,-1.1988,-1.1995,-1.2018,-1.2025,-1.2052,-1.2037,-1.2046,-1.2067,-1.2077,-1.2106,-1.2073,-1.2108,-1.2109,-1.2104,-1.2165,-1.2174,-1.2224,-1.2145,-1.2146,-1.2147,0,-1.1897,-1.1917,-1.1967,-1.1983,-1.1993,-1.2017,-1.204,-1.2062,-1.208,-1.2083,-1.21,-1.2097,-1.2129,-1.2107,-1.2151,-1.2128,-1.2142,-1.2149,-1.2151,-1.2155,-1.2131,-1.2172,-1.2239,-1.2247,-1.2158,-1.2157,-1.2156,0,-1.194,-1.1979,-1.2014,-1.2023,-1.2043,-1.206,-1.2069,-1.2086,-1.2101,-1.2121,-1.2131,-1.2156,-1.217,-1.2189,-1.2193,-1.2177,-1.2238,-1.2216,-1.2242,-1.2242,-1.2257,-1.2256,-1.2328,-1.2264,-1.2264,-1.2264,-1.2263,0,-1.1998,-1.203,-1.2033,-1.2055,-1.209,-1.209,-1.2124,-1.2132,-1.2147,-1.2171,-1.2165,-1.2187,-1.2191,-1.2215,-1.2218,-1.2254,-1.226,-1.2265,-1.2266,-1.2266,-1.2266,-1.2276,-1.2273,-1.2266,-1.2265,-1.2265,-1.2264,0,-1.2053,-1.2056,-1.2094,-1.2109,-1.2113,-1.2138,-1.2151,-1.2173,-1.2178,-1.2208,-1.2215,-1.2224,-1.2251,-1.2257,-1.229,-1.2292,-1.2335,-1.2332,-1.2329,-1.2329,-1.2355,-1.2353,-1.2438,-1.2449,-1.2377,-1.2377,-1.2378,0,-1.209,-1.2114,-1.2131,-1.2145,-1.2155,-1.2179,-1.2194,-1.2194,-1.221,-1.2232,-1.2251,-1.2277,-1.2298,-1.2343,-1.2353,-1.2378,-1.2376,-1.2404,-1.238,-1.2379,-1.2378,-1.2376,-1.2379,-1.2409,-1.241,-1.241,-1.2411,0,-1.2157,-1.2157,-1.2178,-1.22,-1.2217,-1.2235,-1.2251,-1.2264,-1.2267,-1.2285,-1.2312,-1.2329,-1.2361,-1.2388,-1.2413,-1.2423,-1.2418,-1.2418,-1.2426,-1.2427,-1.2424,-1.2427,-1.2343,-1.2417,-1.2416,-1.2416,-1.2415,-1.2415,-1.2205,-1.2225,-1.2239,-1.2263,-1.2275,-1.2291,-1.2311,-1.2318,-1.234,-1.2366,-1.2365,-1.2395,-1.2412,-1.2444,-1.2456,-1.248,-1.2472,-1.2482,-1.2485,-1.2488,-1.2491,-1.2419,-1.2485,-1.2484,-1.2484,-1.2484,-1.2484,0,-1.2271,-1.228,-1.2301,-1.2324,-1.2342,-1.2333,-1.2351,-1.2368,-1.2394,-1.2409,-1.243,-1.2461,-1.2486,-1.2498,-1.2523,-1.254,-1.2538,-1.2547,-1.2546,-1.2549,-1.2497,-1.2488,-1.2548,-1.2548,-1.2548,-1.2548,-1.2548,-1.2548,-1.2308,-1.2342,-1.2344,-1.2384,-1.2392,-1.242,-1.2431,-1.2446,-1.2458,-1.2492,-1.2513,-1.2519,-1.2534,-1.2559,-1.2583,-1.2585,-1.2596,-1.2605,-1.2607,-1.2559,-1.2552,-1.2546,-1.2538,-1.2607,-1.2607,-1.2657,-1.2658,-1.2658]}]]